Overview Statistics Trail Chart Weather Telemetry Raw packets
 

This is the latest recevied weather packets stored in our database for station/object KB1RMA-4. If no packets are shown the sender has not sent any weather packets the latest 10 day(s).

<< 82 83 84 85 86 87 88 >>
Time Temp. Humidity Pressure Rain* Wind** Luminosity Snow
1788033141 23.89° C 48% 1021.3 hPa 0 mm - 451 W/m² -
1788032841 23.89° C 48% 1021.4 hPa 0 mm - 465 W/m² -
1788032540 23.89° C 49% 1021.7 hPa 0 mm - 477 W/m² -
1788032236 24.44° C 49% 1021.3 hPa 0 mm - 487 W/m² -
1788031933 23.89° C 48% 1021.5 hPa 0 mm - 503 W/m² -
1788031632 24.44° C 49% 1021.3 hPa 0 mm - 527 W/m² -
1788031327 24.44° C 45% 1021.2 hPa 0 mm - 542 W/m² -
1788031026 24.44° C 46% 1021.7 hPa 0 mm - 546 W/m² -
1788030720 23.89° C 45% 1021.6 hPa 0 mm - 564 W/m² -
1788030414 23.89° C 48% 1021.7 hPa 0 mm - 570 W/m² -
1788030111 23.89° C 47% 1021.6 hPa 0 mm - 565 W/m² -
1788029810 23.89° C 44% 1021.6 hPa 0 mm - 576 W/m² -
1788029505 24.44° C 43% 1021.7 hPa 0 mm - 558 W/m² -
1788029206 24.44° C 42% 1022 hPa 0 mm - 570 W/m² -
1788028899 23.89° C 45% 1021.7 hPa 0 mm - 565 W/m² -
1788028599 23.89° C 46% 1021.8 hPa 0 mm - 594 W/m² -
1788028294 23.89° C 46% 1021.9 hPa 0 mm - 596 W/m² -
1788027990 23.89° C 44% 1021.8 hPa 0 mm - 606 W/m² -
1788027685 24.44° C 42% 1022 hPa 0 mm - 613 W/m² -
1788027384 24.44° C 42% 1021.9 hPa 0 mm - 618 W/m² -
1788027079 23.89° C 41% 1022.2 hPa 0 mm - 596 W/m² -
1788026779 24.44° C 40% 1022.2 hPa 0 mm - 643 W/m² -
1788026475 24.44° C 41% 1022.1 hPa 0 mm - 655 W/m² -
1788026175 24.44° C 41% 1022.1 hPa 0 mm - 652 W/m² -
1788025874 24.44° C 40% 1022 hPa 0 mm - 649 W/m² -

* Rain latest hour (hover to see other rain measurements)
** Current wind speed in m/s (hover to see current wind gust speed)